Wind_Speed
26 24 26 26 23 23 23 23 20 21 26 27 27 24 16 11 17 17 11 12 14 17 16 16 17 17 18 19 20 21 22 24 29 31 29 28 28 28 29 27 26 25 27
22 23 26 20 22 25 24 23 24 27 26 21 14 15 15 17 11 12 13 13 16 18 17 18 18 19 21 22 23 24 26 26 29 33 34 32 31 29 31 25 22 24 28
23 28 25 22 24 24 21 18 22 22 14 6 15 15 9 12 7 12 14 15 17 18 18 19 20 21 23 25 26 27 29 30 30 32 35 33 32 30 30 27 24 25 24
29 28 22 24 26 27 27 22 20 19 15 7 16 12 11 10 13 14 15 15 16 17 18 19 21 22 24 26 27 30 31 31 31 32 34 32 30 33 29 30 26 24 24
22 24 26 28 25 20 15 13 17 13 10 13 16 7 5 10 13 15 12 13 16 17 19 20 22 24 28 31 33 36 33 33 32 32 34 30 32 30 27 24 23 22 23
23 21 24 23 20 20 17 18 13 16 12 9 8 10 10 13 16 19 19 20 19 19 21 22 24 26 28 31 33 33 33 35 37 35 36 35 34 30 24 20 20 21 25
19 20 19 20 23 23 14 16 13 11 9 6 8 10 11 11 16 19 19 20 21 20 22 24 26 26 29 30 32 35 36 36 35 34 32 31 32 27 23 23 22 23 24
19 19 21 22 24 19 16 14 11 9 7 9 8 8 8 9 17 21 21 22 23 22 23 25 28 31 32 32 34 35 36 37 32 30 30 27 26 25 21 19 18 19 23
20 21 22 22 21 17 14 10 7 7 7 6 6 7 8 9 16 22 26 26 25 26 25 26 28 33 35 36 39 39 39 41 35 32 35 35 34 29 29 31 30 25 28
20 20 21 18 15 14 8 6 6 7 7 7 7 7 11 14 15 23 27 29 29 28 27 24 27 29 32 34 36 38 43 37 35 31 26 30 30 33 30 30 31 27 24
20 20 18 16 10 8 8 7 7 6 7 9 14 15 16 15 15 21 23 23 22 26 28 30 29 27 29 31 32 34 37 35 34 33 30 27 27 21 20 22 23 20 21
20 18 15 13 10 6 7 5 5 5 6 11 15 13 9 11 13 15 20 23 23 26 28 28 28 30 31 33 33 34 32 31 32 29 31 31 27 26 26 24 24 22 23
16 14 12 9 7 6 6 5 4 4 6 8 10 9 9 12 7 17 23 22 21 22 24 27 29 29 31 30 27 27 27 26 29 27 28 30 31 31 25 26 27 25 24
14 12 10 8 7 6 4 4 4 6 8 8 8 9 10 10 9 19 22 23 24 24 25 27 26 24 26 26 26 24 22 21 21 22 22 22 21 21 23 22 25 23 23
11 10 8 8 8 6 8 8 7 12 10 10 11 12 13 13 15 20 22 23 24 25 26 24 21 21 23 21 20 21 21 18 20 20 20 20 19 19 21 22 25 25 23
10 9 8 6 6 6 5 8 9 11 13 14 14 13 15 18 19 21 22 22 22 21 19 18 20 19 19 20 18 18 14 22 22 20 21 22 22 21 20 20 23 23 21
8 6 5 5 5 5 5 4 5 12 16 15 15 16 17 19 20 21 23 21 18 17 13 16 18 19 19 18 19 19 20 19 15 17 19 22 24 24 22 22 22 21 20
3 4 4 4 5 5 5 7 7 7 8 9 14 18 23 22 19 21 22 19 14 13 13 15 16 18 18 19 19 19 21 21 18 18 16 20 21 24 23 23 21 20 18
4 4 6 7 9 9 9 9 9 9 10 11 11 13 14 25 20 16 18 13 14 14 15 15 16 17 18 18 18 19 18 20 20 19 16 15 19 20 22 23 21 18 17
8 7 7 8 9 9 9 10 8 10 11 11 13 14 16 20 20 13 15 15 15 15 16 16 16 17 18 18 19 19 20 19 19 18 17 12 10 16 20 21 21 18 17
6 9 8 9 10 11 11 10 9 10 12 12 13 15 23 25 18 14 15 15 16 16 17 17 17 18 18 19 19 19 20 19 18 16 19 17 13 12 13 19 19 18 16
8 10 11 11 12 11 11 12 11 11 12 13 14 14 20 18 14 16 15 17 19 17 16 18 18 18 18 18 19 19 20 20 19 19 18 19 15 16 12 12 18 17 17
10 11 11 10 11 12 10 10 11 11 13 13 14 15 15 16 16 16 16 17 17 18 17 18 18 19 18 18 19 19 19 20 20 20 22 21 18 15 16 12 13 19 18
10 10 10 10 10 14 10 12 11 13 14 14 15 15 15 16 16 17 17 17 18 18 18 18 19 20 19 20 21 21 22 22 21 22 22 22 20 17 14 16 11 18 20
9 9 9 10 10 11 12 12 13 14 14 14 15 15 15 16 16 16 17 17 19 18 18 20 20 19 20 23 24 24 23 23 23 22 23 22 21 19 17 15 17 12 20
9 9 10 11 12 12 13 14 14 15 15 15 16 16 16 16 16 16 17 18 17 20 23 20 20 21 22 23 23 23 24 23 24 22 22 23 22 19 18 15 17 13 21
Wind_Direction
207 209 215 215 216 225 234 233 216 204 196 204 216 221 206 221 261 260 231 248 259 262 264 267 265 269 272 272 271 274 277 279 281 285 285 287 285 280 280 272 271 273 280
206 203 213 215 220 216 231 213 206 203 217 228 215 202 225 251 226 234 246 256 264 266 269 270 271 274 272 273 273 274 275 277 277 281 284 285 285 284 281 269 265 272 281
199 209 217 216 213 217 219 226 230 228 206 190 209 216 248 249 234 243 254 268 268 268 269 274 276 275 273 272 272 274 276 279 279 281 283 284 286 282 282 280 267 276 275
204 213 213 205 207 211 211 207 215 202 182 217 224 226 296 218 241 251 267 268 268 272 277 277 277 275 273 273 274 275 277 278 279 282 284 284 284 282 274 274 271 273 279
205 206 203 204 202 195 192 176 170 191 230 241 214 246 217 236 253 263 259 263 273 280 281 281 281 278 274 271 271 273 275 279 283 285 287 283 278 277 275 277 278 279 282
198 202 195 188 185 180 161 168 184 205 207 204 239 202 234 258 255 258 267 279 280 280 282 284 282 282 283 285 285 282 275 275 276 276 281 279 276 273 276 277 280 285 287
181 185 181 182 173 168 176 184 181 175 195 199 211 244 248 245 260 272 280 284 286 284 284 286 286 286 284 284 283 284 281 279 276 275 274 275 274 274 278 280 279 275 279
184 175 169 167 171 175 173 160 167 175 208 228 232 234 245 259 266 275 281 284 287 284 286 287 286 287 286 287 287 281 275 277 278 278 276 273 274 270 272 272 274 278 278
160 153 161 166 169 170 163 165 211 202 216 216 233 241 250 258 273 275 280 284 284 288 288 286 285 283 282 283 281 282 282 280 273 271 268 265 265 262 265 268 265 274 275
152 154 161 162 155 165 191 172 187 196 209 219 228 242 251 263 277 273 278 284 289 294 295 292 286 284 286 286 283 282 285 279 287 272 262 268 261 260 267 264 267 258 262
150 148 152 158 164 159 168 180 184 194 212 232 252 263 275 276 273 279 287 290 297 297 299 303 302 298 294 295 290 287 283 288 287 274 266 258 262 248 255 268 262 256 253
152 150 155 159 167 174 175 185 195 212 234 256 275 283 281 279 291 296 292 299 306 303 303 306 304 303 305 300 290 285 284 283 284 275 264 259 260 250 254 251 252 253 258
151 150 151 165 177 166 172 197 217 235 254 262 280 286 285 292 302 287 285 300 305 309 308 304 301 304 308 311 301 294 287 280 275 271 265 264 266 264 254 258 250 247 255
154 155 160 160 170 185 184 234 244 251 260 274 285 288 290 298 298 284 308 316 316 315 315 316 313 311 314 312 307 298 294 282 270 263 266 268 266 259 257 260 249 245 249
157 162 164 188 198 218 221 237 248 264 274 276 273 284 288 297 288 307 312 315 317 316 314 320 315 301 306 310 311 305 295 288 261 265 263 264 262 262 263 258 247 256 253
157 164 187 208 225 223 234 278 269 279 284 287 291 289 293 297 303 305 308 311 311 313 320 313 312 317 317 316 314 321 320 292 273 266 271 263 255 257 260 254 257 260 250
170 192 210 241 239 246 263 265 266 302 306 309 307 301 295 295 300 303 307 311 315 319 315 312 313 317 319 323 319 316 302 300 328 269 277 265 259 258 256 258 255 249 248
188 215 227 251 263 279 276 274 280 276 274 287 302 300 304 303 306 307 309 318 316 315 315 314 314 315 319 319 319 317 313 305 293 297 296 277 273 257 262 256 248 247 242
245 265 270 274 274 275 278 282 286 284 286 287 288 292 297 295 309 322 324 316 310 312 310 310 310 312 313 314 315 312 314 314 312 297 296 289 276 269 261 251 246 240 235
272 267 272 278 284 287 287 286 287 285 288 290 290 292 288 296 314 314 306 307 306 305 305 308 309 309 312 315 315 315 312 312 313 315 297 302 288 281 270 250 246 240 230
263 286 286 284 284 282 284 286 285 286 288 288 290 292 290 297 309 305 302 302 301 301 304 305 307 308 311 311 312 312 311 311 311 314 308 294 282 274 276 257 248 236 227
283 287 289 286 285 287 281 288 287 287 288 290 289 290 293 312 303 297 300 296 295 302 301 301 303 304 306 305 307 309 308 310 310 305 300 299 294 268 267 263 249 235 225
290 291 292 294 293 290 302 294 294 294 290 292 295 296 296 296 294 298 298 296 300 298 299 299 301 302 303 303 300 303 304 304 302 300 297 297 296 290 260 263 252 241 232
299 300 300 299 301 303 303 296 299 297 299 298 296 296 296 296 297 299 301 299 298 302 302 304 301 303 306 307 306 303 298 295 293 295 293 293 291 286 285 250 257 240 239
315 314 310 309 306 302 302 302 296 297 296 297 298 298 298 298 300 301 301 301 300 305 304 301 309 310 307 307 309 308 306 301 295 294 293 288 285 285 279 268 238 240 241
312 309 308 306 304 301 298 296 295 295 297 298 298 302 302 302 302 303 304 302 307 299 305 312 307 308 311 315 315 308 304 301 297 293 287 284 283 282 282 269 236 239 234
Height
1487 1489 1490 1492 1497 1500 1503 1506 1508 1510 1511 1513 1515 1520 1524 1526 1527 1528 1531 1532 1533 1534 1532 1530 1529 1528 1527 1526 1525 1523 1521 1519 1514 1509 1509 1507 1503 1502 1500 1496 1494 1493 1491
1482 1484 1483 1488 1492 1495 1497 1500 1504 1505 1506 1510 1513 1517 1520 1521 1523 1526 1528 1529 1529 1528 1527 1526 1524 1523 1522 1520 1519 1516 1514 1512 1509 1503 1501 1499 1497 1494 1491 1489 1486 1486 1484
1476 1475 1477 1481 1485 1489 1492 1494 1497 1500 1506 1511 1512 1514 1517 1518 1521 1524 1523 1523 1525 1523 1522 1520 1518 1517 1515 1514 1512 1510 1507 1505 1502 1497 1492 1491 1489 1487 1485 1482 1480 1479 1478
1467 1471 1473 1477 1480 1483 1486 1488 1492 1497 1500 1506 1509 1511 1513 1515 1518 1520 1518 1518 1519 1518 1516 1514 1512 1511 1509 1508 1505 1503 1500 1497 1494 1490 1486 1483 1482 1480 1478 1475 1473 1473 1471
1465 1469 1471 1473 1478 1482 1486 1489 1491 1497 1498 1501 1505 1507 1509 1513 1514 1514 1513 1514 1513 1511 1509 1508 1506 1504 1502 1500 1498 1495 1493 1490 1487 1484 1480 1476 1474 1472 1470 1469 1467 1467 1465
1459 1463 1467 1471 1475 1479 1483 1487 1490 1493 1497 1500 1502 1505 1507 1508 1507 1507 1507 1506 1505 1504 1502 1501 1499 1497 1494 1491 1487 1485 1484 1481 1479 1476 1473 1470 1467 1466 1465 1463 1462 1461 1459
1460 1462 1467 1470 1474 1479 1482 1486 1488 1493 1496 1498 1501 1502 1502 1503 1502 1501 1501 1500 1498 1497 1496 1494 1491 1489 1487 1484 1480 1476 1473 1471 1468 1467 1464 1463 1460 1460 1459 1457 1457 1455 1454
1457 1461 1465 1470 1474 1478 1482 1485 1488 1491 1494 1496 1497 1497 1498 1499 1497 1497 1496 1493 1491 1490 1489 1486 1484 1481 1479 1476 1472 1468 1465 1463 1461 1457 1455 1455 1455 1454 1453 1452 1451 1449 1448
1459 1462 1466 1471 1474 1478 1481 1484 1487 1489 1491 1492 1493 1494 1494 1495 1493 1490 1488 1487 1484 1482 1480 1477 1475 1471 1468 1466 1462 1457 1453 1451 1452 1449 1448 1448 1447 1446 1447 1447 1445 1445 1441
1461 1464 1467 1471 1475 1478 1480 1483 1485 1486 1488 1489 1489 1490 1489 1489 1487 1483 1481 1479 1475 1472 1470 1467 1464 1461 1457 1454 1451 1448 1443 1441 1441 1439 1438 1437 1437 1438 1438 1438 1437 1437 1436
1460 1464 1468 1471 1474 1476 1477 1479 1480 1482 1484 1484 1483 1483 1483 1482 1480 1476 1474 1472 1469 1465 1461 1457 1454 1452 1448 1445 1442 1438 1435 1434 1433 1431 1430 1431 1429 1429 1430 1429 1429 1429 1429
1460 1463 1467 1469 1471 1473 1475 1477 1478 1479 1479 1478 1478 1478 1478 1476 1474 1471 1467 1465 1463 1459 1454 1451 1447 1444 1440 1435 1431 1428 1426 1425 1424 1422 1422 1422 1423 1423 1423 1423 1422 1422 1422
1460 1463 1465 1467 1469 1471 1474 1475 1475 1476 1475 1475 1474 1474 1473 1471 1471 1467 1462 1460 1457 1453 1449 1444 1440 1436 1432 1427 1422 1419 1418 1416 1416 1415 1414 1414 1415 1415 1416 1416 1416 1416 1416
1460 1462 1463 1465 1467 1468 1469 1470 1471 1471 1470 1470 1470 1469 1467 1466 1465 1460 1456 1453 1449 1445 1442 1438 1434 1429 1426 1422 1417 1413 1410 1409 1409 1409 1408 1408 1408 1409 1409 1409 1409 1410 1410
1458 1460 1462 1463 1464 1464 1465 1465 1465 1463 1465 1465 1464 1464 1461 1459 1457 1455 1451 1448 1444 1440 1436 1432 1429 1425 1421 1417 1413 1409 1406 1404 1404 1404 1403 1403 1403 1404 1403 1403 1403 1404 1404
1456 1458 1459 1462 1462 1463 1462 1461 1461 1459 1459 1459 1458 1457 1456 1453 1451 1449 1446 1443 1440 1436 1432 1431 1426 1421 1417 1412 1409 1405 1401 1399 1398 1399 1397 1397 1397 1398 1398 1397 1397 1398 1398
1454 1456 1458 1461 1461 1461 1461 1460 1461 1456 1454 1453 1453 1451 1451 1449 1446 1443 1440 1438 1434 1431 1430 1426 1422 1417 1412 1409 1406 1402 1398 1394 1391 1391 1391 1390 1391 1391 1392 1392 1391 1392 1392
1454 1456 1456 1458 1460 1460 1460 1457 1456 1455 1453 1453 1449 1448 1445 1442 1440 1437 1434 1431 1431 1428 1425 1422 1418 1414 1410 1406 1402 1397 1394 1391 1389 1388 1386 1385 1384 1384 1385 1385 1386 1386 1387
1453 1454 1455 1455 1456 1455 1455 1453 1452 1451 1450 1449 1448 1446 1443 1437 1435 1432 1431 1429 1426 1423 1421 1418 1415 1411 1406 1401 1398 1395 1391 1389 1386 1383 1381 1380 1379 1379 1378 1379 1380 1381 1382
1451 1452 1452 1452 1452 1451 1450 1450 1449 1448 1446 1445 1443 1442 1438 1432 1429 1429 1428 1425 1422 1419 1416 1412 1409 1405 1402 1399 1394 1391 1387 1384 1382 1379 1376 1374 1374 1374 1373 1373 1374 1376 1377
1450 1449 1450 1449 1448 1447 1446 1445 1444 1443 1442 1441 1439 1436 1430 1428 1425 1425 1423 1420 1417 1414 1411 1408 1405 1401 1397 1395 1391 1387 1384 1381 1378 1375 1373 1370 1369 1368 1368 1368 1369 1371 1373
1448 1447 1447 1446 1444 1443 1442 1440 1439 1439 1438 1436 1434 1431 1427 1424 1423 1420 1418 1415 1412 1409 1406 1403 1399 1397 1393 1390 1387 1383 1380 1377 1374 1371 1368 1366 1364 1364 1364 1363 1365 1366 1368
1445 1445 1443 1442 1440 1438 1438 1437 1435 1434 1432 1430 1428 1426 1423 1421 1418 1415 1412 1409 1406 1403 1400 1397 1393 1390 1387 1384 1382 1378 1375 1373 1370 1367 1364 1362 1360 1360 1359 1359 1360 1362 1363
1442 1441 1440 1439 1437 1434 1433 1432 1431 1429 1427 1425 1423 1421 1418 1416 1413 1410 1407 1404 1401 1397 1394 1391 1387 1383 1381 1378 1375 1372 1369 1366 1364 1361 1359 1357 1355 1355 1354 1355 1355 1358 1359
1439 1438 1437 1435 1433 1432 1430 1429 1427 1425 1423 1421 1418 1415 1413 1410 1407 1405 1401 1398 1395 1391 1388 1384 1380 1378 1376 1372 1368 1365 1362 1360 1357 1355 1353 1351 1350 1350 1350 1350 1351 1352 1355
1437 1435 1433 1431 1430 1428 1426 1425 1423 1420 1418 1415 1412 1410 1407 1404 1401 1398 1395 1392 1389 1385 1381 1378 1375 1372 1369 1365 1362 1359 1356 1353 1351 1349 1347 1345 1344 1344 1344 1344 1346 1348 1351